Weather in Priozerny

Russia / Yamalo-Nenets Autonomous Okrug     64°16′13″N   71°05′45″E
temp.,
°C
wind,
m/s
gust,
m/s
humid.,
%
clouds,
%
prec.,
mm/h
press.,
hPa
HPBL,
m
6 august, fri
fri623:00+18ese34671 0.0 101149
02:00+15se33755 0.0 101127
05:00+16se33786 0.0 101131
08:00+21ese22565 0.0 1011323
11:00+22e345540 0.0 1012473
14:00+25e564676 0.0 10112045
17:00+25e67485 0.0 10111566
20:00+22e3361100 0.0 101117
7 august, sat
sat723:00+21e3458100 0.0 101155
02:00+20e345764 0.0 101163
05:00+18ene44701 0.0 101256
08:00+23ene465799 0.0 1012316
11:00+25ene35461 0.0 10121175
14:00+27e543534 0.0 10122478
17:00+27ene443517 0.0 10122052
20:00+23ne475374 0.0 1012113
8 august, sun
sun823:00+20ene45575 0.0 101365
02:00+19ene336098 0.0 101326
05:00+20e3355100 0.0 101432
08:00+22e345575 0.0 1015156
11:00+27ese333946 0.0 10141519
14:00+28e223523 0.0 10142212
17:00+28e223662 0.0 10142207
20:00+23ene455050 0.0 101454
9 august, mon
mon923:00+20e33575 0.0 101412
02:00+19e22585 0.0 101411
05:00+18ene22626 0.0 101412
08:00+23ne345392 0.0 1014325
11:00+26ene554595 0.0 10141261
14:00+27ene644287 0.0 10142085
17:00+25ene6845100 0.0 1014438
20:00+21ene595351 0.0 1015131
10 august, tue
tue1023:00+18ene585067 0.0 1015104
02:00+15ene445533 0.0 101636
05:00+15ne476971 0.0 1017118
08:00+19ne686347 0.0 1017537
11:00+21ne78575 0.0 10171176
14:00+22ne775253 0.0 10181543
17:00+20nne885140 0.0 10181258
20:00+14n91261100 0.0 1020407